CZ-6A DEB

Satellite information

Favourite Embed

Satellite Type and Status

DEBRISIN ORBIT

Key statistics

Satellite CZ-6A DEB at a glance.

Uptime

969

Days in orbit

Revolutions

≈ 14.6

Per day

Orbit

SSO

Sun Synchronous Orbit

Inclination

99.1

Latest

Satellite identification and parameters

Extended collection of information and parameters for CZ-6A DEB.

Object identification

Identified? True

Debris? True

Object name: CZ-6A DEB

International designator: 2022-151CY

Object number (NORAD): 54353

Object ID (CCSDS): 54353

Country: PEOPLES REPUBLIC OF CHINA (PRC)

Current information (Y/N): Y

RCS size: SMALL

Orbital parameters

Period: 98.746 minutes

Inclination: 99.0725 deg

SMA: 7076.833 km

Apoapsis: 786.244 km

Periapsis: 611.152 km

RAAN: 277.4371 deg

Eccentricy: 0.0123708

Argument of periapsis: 337.6182 deg

Mean anomaly: 21.9644 deg

Mean motion: 14.58291578 rev/day

Mean motion (dot): 0.00004809 rev/day2

B* drag term: 0.00094732 1/REarth

Two-line elements (TLE)

Creation date: July 6, 2025, 10:56 p.m.

Reference frame: TEME

Reference center: EARTH

Epoch: July 6, 2025, 7:18 p.m. UTC

TLE line 0: 0 CZ-6A DEB

TLE line 1: 1 54353U 22151CY 25187.80454717 .00004809 00000-0 94732-3 0 9999

TLE line 2: 2 54353 99.0725 277.4371 0123708 337.6182 21.9644 14.58291578139061

Live tracking on map

Real-time ground track for satellite CZ-6A DEB.

In-orbit conjunctions

A list of the most updated potential collisions computed for object CZ-6A DEB.

Target Orbit TCA Probability of collision Miss distance Type
SL-14 R/B LEO 2025-05-21 08:43:06 0.0002214424 416.0 (m) ROCKET BODY
COSMOS 886 DEB MEO 2024-11-15 23:39:33 0.0001317198 354.0 (m) DEBRIS

Associated space launch

Chinese satellite reported for atmospheric/ocean/environmental/spatial parameter research purposes, details TBD.

CZ-6A DEB was lifted into orbit during the mission ‘Long March 6A | Yunhai 3’, on board a Long March 6A space rocket.

The launch took place on Nov. 11, 2022, 10:52 p.m. from Launch Complex 9A.

For more information about the launch, click the button.

Launch to space Long March 6A | Yunhai 3
Long March 6A | Yunhai 3

Agency: N/A

Status: Launch Successful

Launch date: Nov. 11, 2022, 10:52 p.m. UTC

Rocket: Long March 6A

Launch pad: Launch Complex 9A

Location: Taiyuan Satellite Launch Center, People's Republic of China

...

Latest news about this satellite

There are no fresh news available about this satellite. Check back as we update our databases every day.


Newsletter sign-up

Weekly statistics, charts and insights to help you stay on top of the space industry.